Forestdale, MA

12:17 PM EDT on October 01, 2016 (GMT -0400)
Cape Cod Coast Guard Air Station

Weather History for KFMH - February, 2013

Change the Weather History Date:

Sunday, February 24, 2013

  Actual Average Record
Temperature  
Mean Temperature 38 °F -  
Max Temperature 45 °F 39 °F 55 °F (2016)
Min Temperature 32 °F 22 °F 0 °F (2015)
Degree Days  
Heating Degree Days 26    
Moisture  
Dew Point 37 °F    
Average Humidity 96    
Maximum Humidity 100    
Minimum Humidity 85    
Precipitation  
Precipitation 0.47 in - - ()
Sea Level Pressure  
Sea Level Pressure 29.69 in    
Wind  
Wind Speed 14 mph (NE)    
Max Wind Speed 28 mph    
Max Gust Speed 31 mph    
Visibility 4 miles    
Events Rain , Snow    
Averages and records for this station are not official NWS values.
T = Trace of Precipitation, MM = Missing Value Source: NWS Daily Summary

Daily Weather History Graph

Daily Weather History Graph

Search for Another Location

Airport or City:

Trip Planner

Search our weather history database for the weather conditions in past years. The results will help you decide how hot, cold, wet, or windy it might be!

Date:

Astronomy

Feb. 24, 2013 Rise Set
Actual Time 6:24 AM EST 5:26 PM EST
Civil Twilight 5:56 AM EST 5:54 PM EST
Nautical Twilight 5:24 AM EST 6:27 PM EST
Astronomical Twilight 4:51 AM EST 6:59 PM EST
Moon 4:34 PM EST (2/24) 5:20 AM EST (2/24)
Length of Visible Light 11h 58m
Length of Day
11h 02m
Waxing Gibbous, 99% of the Moon is Illuminated
Feb 24
Waxing Gibbous
Feb 25
Full
Mar 4
Last Quarter
Mar 11
New
Mar 19
First Quarter

Hourly Weather History & Observations

Time (EST) Temp. Windchill Dew Point Humidity Pressure Visibility Wind Dir Wind Speed Gust Speed Precip Events Conditions
12:15 AM 39.2 °F 31.2 °F 37.4 °F 93% 29.83 in 9.0 mi East 13.8 mph 23.0 mph N/A   Overcast
12:35 AM 39.2 °F 30.8 °F 37.4 °F 93% 29.83 in 4.0 mi East 15.0 mph 25.3 mph N/A Rain Light Rain
12:55 AM 39.2 °F 31.6 °F 39.2 °F 100% 29.82 in 4.0 mi East 12.7 mph 20.7 mph N/A Rain Light Rain
1:15 AM 39.2 °F 31.2 °F 39.2 °F 100% 29.81 in 4.0 mi East 13.8 mph 21.9 mph N/A Rain Light Rain
1:35 AM 39.2 °F 30.5 °F 39.2 °F 100% 29.80 in 4.0 mi East 16.1 mph 19.6 mph N/A Rain Light Rain
1:55 AM 41.0 °F 34.7 °F 39.2 °F 93% 29.79 in 8.0 mi East 10.4 mph 17.3 mph N/A   Overcast
2:15 AM 41.0 °F 33.1 °F 39.2 °F 93% 29.77 in 9.0 mi ENE 15.0 mph 20.7 mph N/A   Overcast
2:35 AM 41.0 °F 33.5 °F 39.2 °F 93% 29.75 in 8.0 mi ENE 13.8 mph 21.9 mph N/A   Overcast
2:55 AM 41.0 °F 33.5 °F 39.2 °F 93% 29.74 in 5.0 mi ENE 13.8 mph 19.6 mph N/A Rain Light Rain
3:15 AM 41.0 °F 33.5 °F 39.2 °F 93% 29.72 in 4.0 mi ENE 13.8 mph 19.6 mph N/A Rain Light Rain
3:35 AM 41.0 °F 34.3 °F 39.2 °F 93% 29.71 in 3.0 mi ENE 11.5 mph 19.6 mph N/A   Overcast
3:55 AM 41.0 °F 33.9 °F 39.2 °F 93% 29.70 in 1.8 mi East 12.7 mph - N/A Rain Light Rain
4:15 AM 41.0 °F 33.9 °F 41.0 °F 100% 29.70 in 3.0 mi East 12.7 mph 21.9 mph N/A   Overcast
4:35 AM 41.0 °F 34.3 °F 41.0 °F 100% 29.69 in 4.0 mi ENE 11.5 mph 18.4 mph N/A   Overcast
4:55 AM 41.0 °F 34.3 °F 41.0 °F 100% 29.69 in 4.0 mi East 11.5 mph 19.6 mph N/A   Overcast
5:15 AM 41.0 °F 32.5 °F 41.0 °F 100% 29.68 in 3.0 mi East 17.3 mph 25.3 mph N/A Rain Light Rain
5:35 AM 42.8 °F 36.2 °F 41.0 °F 93% 29.67 in 4.0 mi East 12.7 mph 24.2 mph N/A   Overcast
5:55 AM 42.8 °F 35.4 °F 41.0 °F 93% 29.68 in 5.0 mi East 15.0 mph 19.6 mph N/A   Overcast
6:15 AM 42.8 °F 36.6 °F 41.0 °F 93% 29.69 in 3.0 mi ENE 11.5 mph 19.6 mph N/A   Overcast
6:35 AM 42.8 °F 38.0 °F 41.0 °F 93% 29.70 in 2.5 mi ENE 8.1 mph 17.3 mph N/A Rain Light Rain
6:55 AM 41.0 °F 35.2 °F 41.0 °F 100% 29.68 in 1.5 mi NE 9.2 mph - 0.01 in Rain Light Rain
7:15 AM 41.0 °F 35.2 °F 39.2 °F 93% 29.68 in 1.8 mi NE 9.2 mph - N/A Rain Light Rain
7:35 AM 41.0 °F 35.2 °F 39.2 °F 93% 29.68 in 2.5 mi NNE 9.2 mph 16.1 mph 0.01 in Rain Light Rain
7:55 AM 41.0 °F 33.5 °F 39.2 °F 93% 29.67 in 3.0 mi NE 13.8 mph - 0.02 in Rain Light Rain
8:15 AM 41.0 °F 33.9 °F 39.2 °F 93% 29.66 in 5.0 mi NE 12.7 mph - N/A Rain Light Rain
8:35 AM 41.0 °F 33.1 °F 41.0 °F 100% 29.64 in 3.0 mi NE 15.0 mph 21.9 mph N/A Rain Light Rain
8:55 AM 41.0 °F 32.5 °F 41.0 °F 100% 29.63 in 5.0 mi ENE 17.3 mph 21.9 mph N/A   Overcast
9:15 AM 41.0 °F 32.2 °F 41.0 °F 100% 29.63 in 5.0 mi ENE 18.4 mph 26.5 mph N/A   Overcast
9:35 AM 41.0 °F 31.6 °F 41.0 °F 100% 29.61 in 3.0 mi ENE 20.7 mph 27.6 mph N/A   Overcast
9:55 AM 41.0 °F 32.5 °F 41.0 °F 100% 29.60 in 3.0 mi ENE 17.3 mph 24.2 mph N/A   Overcast
10:15 AM 41.0 °F 31.9 °F 41.0 °F 100% 29.60 in 4.0 mi NE 19.6 mph 24.2 mph N/A   Overcast
10:35 AM 41.0 °F 33.1 °F 41.0 °F 100% 29.60 in 3.0 mi NE 15.0 mph 26.5 mph N/A Rain Light Rain
10:55 AM 41.0 °F 33.5 °F 41.0 °F 100% 29.59 in 3.0 mi NNE 13.8 mph 23.0 mph 0.01 in Rain Light Rain
11:15 AM 41.0 °F 33.9 °F 41.0 °F 100% 29.60 in 3.0 mi NNE 12.7 mph 19.6 mph N/A Rain Light Rain
11:35 AM 41.0 °F 33.9 °F 41.0 °F 100% 29.59 in 2.5 mi NNE 12.7 mph 20.7 mph 0.03 in Rain Light Rain
11:55 AM 41.0 °F 34.7 °F 39.2 °F 93% 29.59 in 2.0 mi North 10.4 mph 18.4 mph 0.06 in Rain Light Rain
12:15 PM 41.0 °F 34.3 °F 39.2 °F 93% 29.59 in 1.5 mi North 11.5 mph 17.3 mph 0.03 in Rain Rain
12:35 PM 41.0 °F 34.7 °F 39.2 °F 93% 29.59 in 1.8 mi North 10.4 mph 20.7 mph 0.08 in Rain Rain
12:55 PM 39.2 °F 30.8 °F 39.2 °F 100% 29.59 in 3.0 mi NNE 15.0 mph 21.9 mph 0.11 in Rain Light Rain
1:15 PM 39.2 °F 30.8 °F 39.2 °F 100% 29.59 in 2.0 mi North 15.0 mph 20.7 mph 0.02 in Rain Light Rain
1:35 PM 39.2 °F 32.0 °F 37.4 °F 93% 29.60 in 1.8 mi North 11.5 mph 24.2 mph 0.15 in Rain Rain
1:55 PM 39.2 °F 30.2 °F 37.4 °F 93% 29.60 in 2.5 mi NNE 17.3 mph 25.3 mph 0.23 in Rain Rain
2:15 PM 37.4 °F 27.5 °F 37.4 °F 100% 29.59 in 3.0 mi NNE 18.4 mph 29.9 mph 0.03 in Rain Light Rain
2:35 PM 37.4 °F 27.8 °F 37.4 °F 100% 29.59 in 7.0 mi NNE 17.3 mph 27.6 mph 0.04 in   Mostly Cloudy
2:55 PM 37.4 °F 27.8 °F 35.6 °F 93% 29.62 in 9.0 mi North 17.3 mph 24.2 mph 0.04 in Rain Light Rain
3:15 PM 37.4 °F 28.5 °F 35.6 °F 93% 29.62 in 7.0 mi NNE 15.0 mph 31.1 mph N/A Rain Light Rain
3:35 PM 35.6 °F 25.9 °F 33.8 °F 93% 29.63 in 7.0 mi NNE 16.1 mph 25.3 mph N/A Rain Light Rain
3:55 PM 35.6 °F 27.1 °F 32.0 °F 87% 29.65 in 5.0 mi North 12.7 mph 24.2 mph 0.01 in Rain Light Rain
4:15 PM 33.8 °F 24.3 °F 32.0 °F 93% 29.64 in 3.0 mi North 13.8 mph 19.6 mph N/A   Overcast
4:35 PM 33.8 °F 24.8 °F 32.0 °F 93% 29.65 in 2.5 mi North 12.7 mph 20.7 mph 0.01 in Rain Light Rain
4:55 PM 32.0 °F 22.5 °F 32.0 °F 100% 29.66 in 2.5 mi NNE 12.7 mph 21.9 mph 0.02 in   Overcast
5:15 PM 32.0 °F 22.1 °F 32.0 °F 100% 29.66 in 2.5 mi North 13.8 mph 20.7 mph N/A Rain Light Rain
5:35 PM 32.0 °F 23.6 °F 32.0 °F 100% 29.68 in 2.0 mi North 10.4 mph 19.6 mph 0.03 in Snow Light Snow
5:55 PM 33.8 °F 25.8 °F 32.0 °F 93% 29.69 in 4.0 mi North 10.4 mph 17.3 mph 0.04 in   Overcast
6:15 PM 33.8 °F 24.8 °F 32.0 °F 93% 29.71 in 4.0 mi NNE 12.7 mph 21.9 mph N/A   Overcast
6:35 PM 33.8 °F 25.3 °F 32.0 °F 93% 29.72 in 3.0 mi NNE 11.5 mph 21.9 mph 0.01 in Rain Light Rain
6:55 PM 33.8 °F 25.3 °F 32.0 °F 93% 29.73 in 3.0 mi North 11.5 mph 18.4 mph 0.02 in Rain Light Rain
7:15 PM 33.8 °F 25.3 °F 32.0 °F 93% 29.75 in 5.0 mi North 11.5 mph 19.6 mph N/A Rain Light Rain
7:35 PM 33.8 °F 26.4 °F 32.0 °F 93% 29.76 in 4.0 mi NNE 9.2 mph 16.1 mph 0.01 in Rain Light Rain
7:55 PM 32.0 °F 23.6 °F 32.0 °F 100% 29.76 in 2.5 mi NNE 10.4 mph 17.3 mph 0.09 in Snow Light Snow
8:15 PM 32.0 °F 25.6 °F 32.0 °F 100% 29.77 in 1.8 mi North 6.9 mph - 0.11 in Snow Light Snow
8:35 PM 32.0 °F 24.2 °F 32.0 °F 100% 29.79 in 1.5 mi North 9.2 mph - 0.35 in Snow Light Snow
8:55 PM 32.0 °F 24.2 °F 32.0 °F 100% 29.79 in 1.5 mi North 9.2 mph - 0.61 in Snow Light Snow
9:15 PM 32.0 °F 24.8 °F 32.0 °F 100% 29.80 in 1.5 mi North 8.1 mph - 0.18 in Snow Light Snow
9:35 PM 32.0 °F 23.0 °F 32.0 °F 100% 29.80 in 1.2 mi North 11.5 mph 16.1 mph 0.50 in Snow Light Snow
9:55 PM 32.0 °F 23.6 °F 32.0 °F 100% 29.81 in 1.0 mi North 10.4 mph 20.7 mph 0.91 in Snow Light Snow
10:15 PM 32.0 °F 23.0 °F 32.0 °F 100% 29.82 in 1.5 mi North 11.5 mph - 0.13 in Snow Light Snow
10:35 PM 32.0 °F 24.2 °F 32.0 °F 100% 29.82 in 1.5 mi NNW 9.2 mph 16.1 mph 0.31 in Snow Light Snow
10:55 PM 32.0 °F 24.2 °F 32.0 °F 100% 29.83 in 1.8 mi NNW 9.2 mph 17.3 mph 0.46 in Snow Light Snow
11:15 PM 32.0 °F 23.6 °F 32.0 °F 100% 29.83 in 1.8 mi NNW 10.4 mph 17.3 mph 0.06 in Snow Light Snow
11:35 PM 32.0 °F 24.2 °F 32.0 °F 100% 29.84 in 1.8 mi North 9.2 mph 16.1 mph 0.15 in Snow Light Snow
11:55 PM 32.0 °F 24.2 °F 32.0 °F 100% 29.85 in 3.0 mi North 9.2 mph - 0.22 in Snow Light Snow